Starlink 11535

operational
NORAD ID: 62595 Int'l Des: 2025-008 Owner: SPXS Country: US Constellation: starlink
LEOCIRCULAR

Über Starlink 11535

Beschreibung wird geladen...

Live-Position

3D-Globus wird geladen...

Nächste Überflüge

Höhenverlauf

Altitude vs Time

uPlot chart will show altitude changes over time

Zweizeiliger Elementsatz

1 62595U 25008J 25305.91972127 .00205909 00000-0 15653-2 0 9992
2 62595 43.0029 175.9333 0002812 272.8999 87.1547 15.70890181 47044
Epoch: 1. Nov. 2025 • Age: 28 hours

Aktueller Status

Höhe 359.3 km
Geschwindigkeit 7.70 km/s
Subsatellitenpunkt 40.12°N, 147.65°W
Startdatum 13. Jan. 2025
Alter 0.8 years
Typ internet

Technische Details

Klassifizierung Payload
Masse 960.00 kg
Trockenmasse 910.00 kg
Gesamtmasse 960.00 kg
Länge 0.30 m
Durchmesser 4.10 m
Spannweite 29.00 m
Form Box + pan
Hersteller SPXS
Bus-Typ Starlink V2MD
Phasenstatus In Orbit
Besitzer/Staat SPXS/US

Große Konstellationen

Loading constellations...